IZ1UQG-2 Weather Reports


Display with metric or nautical units.
time (UTC)temp
F
wind
direction
speed
MPH
gust
MPH
rain 1hr
in
rain 24hr
in
rain mn
in
humidity
%
barometer
mb
20260904220006 75 5 1.0 2.0 0.00 0.00 0.00 67 1015.8
20260904215603 75 322 0.0 2.0 0.00 0.00 0.00 69 1015.8
20260904215204 75 297 1.0 3.0 0.00 0.00 0.00 69 1015.7
20260904214804 75 265 1.0 4.0 0.00 0.00 0.00 68 1015.8
20260904214404 75 240 2.0 4.0 0.00 0.00 0.00 69 1015.7
20260904214004 74 231 2.0 4.0 0.00 0.00 0.00 70 1015.7
20260904213604 74 238 1.0 4.0 0.00 0.00 0.00 70 1015.7
20260904213204 75 235 1.0 4.0 0.00 0.00 0.00 69 1015.7
20260904212803 75 234 1.0 4.0 0.00 0.00 0.00 69 1015.8
20260904212005 75 210 2.0 5.0 0.00 0.00 0.00 68 1015.8
20260904211203 75 216 2.0 5.0 0.00 0.00 0.00 68 1015.8
20260904210804 76 216 2.0 4.0 0.00 0.00 0.00 68 1015.8
20260904210404 76 214 2.0 5.0 0.00 0.00 0.00 67 1015.6
20260904205204 76 220 3.0 6.0 0.00 0.00 0.00 68 1015.8
20260904204803 75 224 3.0 6.0 0.00 0.00 0.00 67 1015.8
20260904204405 76 221 3.0 6.0 0.00 0.00 0.00 67 1015.8
20260904204004 76 216 3.0 5.0 0.00 0.00 0.00 66 1016.0
20260904203604 76 214 3.0 6.0 0.00 0.00 0.00 66 1015.8
20260904203204 76 217 3.0 6.0 0.00 0.00 0.00 66 1016.0
20260904202805 76 218 2.0 6.0 0.00 0.00 0.00 65 1015.9
20260904202405 77 209 1.0 3.0 0.00 0.00 0.00 64 1015.8
20260904202004 77 206 1.0 3.0 0.00 0.00 0.00 64 1015.9
20260904201604 77 217 1.0 3.0 0.00 0.00 0.00 64 1015.8
20260904201204 78 244 1.0 4.0 0.00 0.00 0.00 64 1015.8
20260904200804 78 250 2.0 4.0 0.00 0.00 0.00 64 1015.8
20260904200405 78 237 2.0 5.0 0.00 0.00 0.00 64 1015.8
20260904200005 77 221 2.0 5.0 0.00 0.00 0.00 65 1015.8
20260904195604 77 230 3.0 5.0 0.00 0.00 0.00 64 1015.7
20260904195204 77 234 3.0 6.0 0.00 0.00 0.00 65 1015.8
20260904194803 77 239 3.0 6.0 0.00 0.00 0.00 66 1015.8
20260904194404 76 261 3.0 5.0 0.00 0.00 0.00 67 1015.8
20260904194004 76 295 3.0 4.0 0.00 0.00 0.00 68 1015.9
20260904193604 76 311 3.0 4.0 0.00 0.00 0.00 69 1015.8
20260904192804 77 280 3.0 6.0 0.00 0.00 0.00 65 1015.7
20260904192404 78 270 2.0 6.0 0.00 0.00 0.00 64 1015.6
20260904191604 78 212 5.0 9.0 0.00 0.00 0.00 64 1015.4
20260904191203 78 206 6.0 10.0 0.00 0.00 0.00 63 1015.3
20260904190004 78 201 7.0 10.0 0.00 0.00 0.00 63 1015.2
20260904185204 79 197 6.0 10.0 0.00 0.00 0.00 63 1015.0
20260904184804 79 201 6.0 10.0 0.00 0.00 0.00 63 1015.1
20260904184004 79 217 3.0 6.0 0.00 0.00 0.00 62 1015.0
20260904183604 79 218 4.0 8.0 0.00 0.00 0.00 62 1015.0
20260904182804 80 211 5.0 8.0 0.00 0.00 0.00 61 1015.0
20260904182404 80 209 6.0 9.0 0.00 0.00 0.00 62 1015.0
20260904182004 79 207 6.0 9.0 0.00 0.00 0.00 61 1014.9
20260904181604 80 205 6.0 9.0 0.00 0.00 0.00 62 1015.0
20260904181204 80 204 6.0 9.0 0.00 0.00 0.00 62 1015.0
20260904180804 80 202 5.0 9.0 0.00 0.00 0.00 61 1014.8
20260904175604 80 205 5.0 9.0 0.00 0.00 0.00 60 1014.7
20260904175203 81 210 4.0 9.0 0.00 0.00 0.00 60 1014.7
20260904174404 81 208 3.0 6.0 0.00 0.00 0.00 59 1014.7
20260904174004 81 204 3.0 6.0 0.00 0.00 0.00 59 1014.7
20260904173604 82 213 3.0 6.0 0.00 0.00 0.00 59 1014.6
20260904173204 82 216 3.0 6.0 0.00 0.00 0.00 59 1014.6
20260904172804 82 214 3.0 6.0 0.00 0.00 0.00 58 1014.6
20260904172404 83 211 4.0 6.0 0.00 0.00 0.00 56 1014.5
20260904172004 83 211 3.0 6.0 0.00 1.00 0.00 56 1014.3
20260904171604 83 218 3.0 5.0 0.00 1.00 0.00 56 1014.4
20260904170804 83 236 1.0 4.0 0.00 1.01 0.00 55 1014.3
20260904170404 84 251 0.0 3.0 0.00 1.01 0.00 54 1014.4
20260904170004 85 261 0.0 2.0 0.00 1.01 0.00 53 1014.4
20260904165604 85 260 0.0 2.0 0.00 1.01 0.00 52 1014.2
20260904165205 85 259 1.0 2.0 0.00 1.01 0.00 51 1014.3
20260904164804 85 273 1.0 4.0 0.00 1.01 0.00 51 1014.4
20260904164404 84 282 2.0 4.0 0.00 1.01 0.00 51 1014.4
20260904164004 84 283 2.0 4.0 0.00 1.01 0.00 51 1014.4
20260904163604 85 272 1.0 3.0 0.00 1.01 0.00 51 1014.4
20260904163204 85 292 1.0 3.0 0.00 1.01 0.00 51 1014.4
20260904162804 85 314 1.0 3.0 0.00 1.01 0.00 50 1014.4
20260904162404 85 293 1.0 3.0 0.00 1.01 0.00 50 1014.4
20260904162005 85 302 2.0 5.0 0.00 1.01 0.00 50 1014.4
20260904161605 86 350 2.0 5.0 0.00 1.01 0.00 49 1014.3
20260904161204 87 30 2.0 5.0 0.00 1.01 0.00 47 1014.3
20260904160803 87 61 3.0 7.0 0.00 1.01 0.00 47 1014.4
20260904160404 87 76 4.0 7.0 0.00 1.01 0.00 47 1014.4
20260904160004 87 89 4.0 7.0 0.00 1.01 0.00 47 1014.5
20260904155604 87 83 4.0 7.0 0.00 1.01 0.00 46 1014.6
20260904155204 87 72 3.0 7.0 0.00 1.01 0.00 46 1014.4
20260904154803 88 67 2.0 7.0 0.00 1.01 0.00 46 1014.5
20260904154404 88 87 2.0 8.0 0.00 1.01 0.00 47 1014.5
20260904154004 88 98 3.0 8.0 0.00 1.01 0.00 47 1014.5
20260904153604 88 94 3.0 8.0 0.00 1.01 0.00 47 1014.5
20260904153203 88 74 2.0 6.0 0.00 1.01 0.00 46 1014.6
20260904152804 88 68 2.0 6.0 0.00 1.01 0.00 45 1014.6
20260904152403 88 78 2.0 7.0 0.00 1.01 0.00 46 1014.6
20260904152004 88 91 3.0 9.0 0.00 1.01 0.00 45 1014.6
20260904151604 88 92 4.0 9.0 0.00 1.01 0.00 45 1014.6
20260904151204 88 95 5.0 8.0 0.00 1.01 0.00 45 1014.7
20260904150804 88 96 4.0 8.0 0.00 1.01 0.00 45 1014.8
20260904150403 88 93 4.0 9.0 0.00 1.01 0.00 45 1014.8
20260904150004 88 84 4.0 9.0 0.00 1.01 0.00 45 1014.7
20260904145604 88 86 5.0 8.0 0.00 1.01 0.00 45 1014.8
20260904144404 87 87 6.0 10.0 0.00 1.01 0.00 44 1014.8
20260904144004 88 89 5.0 11.0 0.00 1.01 0.00 44 1015.0
20260904143604 88 89 5.0 11.0 0.00 1.01 0.00 43 1014.9
20260904143204 88 85 5.0 11.0 0.00 1.01 0.00 42 1015.0
20260904142803 87 88 6.0 11.0 0.00 1.01 0.00 44 1015.1
20260904142404 87 86 7.0 11.0 0.00 1.01 0.00 43 1015.2
20260904142004 87 87 7.0 12.0 0.00 1.01 0.00 43 1015.1
20260904141604 87 87 7.0 12.0 0.00 1.01 0.00 42 1015.1
20260904140804 88 87 5.0 10.0 0.00 1.01 0.00 41 1015.1
20260904140404 87 90 6.0 11.0 0.00 1.01 0.00 42 1015.1
20260904140005 88 88 7.0 12.0 0.00 1.01 0.00 41 1015.1
20260904135604 87 83 7.0 12.0 0.00 1.01 0.00 43 1015.2
20260904134803 87 85 7.0 11.0 0.00 1.01 0.00 43 1015.3
20260904134404 87 86 7.0 11.0 0.00 1.01 0.00 44 1015.3
20260904133604 87 86 6.0 10.0 0.00 1.01 0.00 45 1015.2
20260904133204 87 90 5.0 10.0 0.00 1.01 0.00 45 1015.4
20260904132804 87 97 5.0 10.0 0.00 1.01 0.00 45 1015.4
20260904132404 87 94 5.0 10.0 0.00 1.01 0.00 43 1015.4
20260904132004 87 90 5.0 10.0 0.00 1.01 0.00 45 1015.4
20260904131603 87 79 6.0 10.0 0.00 1.01 0.00 44 1015.5
20260904131204 87 78 7.0 10.0 0.00 1.01 0.00 44 1015.5
20260904130804 86 82 7.0 10.0 0.00 1.01 0.00 44 1015.6
20260904130403 86 88 6.0 10.0 0.00 1.01 0.00 43 1015.5
20260904130004 87 94 5.0 10.0 0.00 1.01 0.00 43 1015.5
20260904125203 87 93 6.0 10.0 0.00 1.01 0.00 41 1015.6
20260904123604 87 75 3.0 9.0 0.00 1.01 0.00 41 1015.8
20260904122804 87 93 4.0 10.0 0.00 1.01 0.00 43 1016.0
20260904122403 86 92 5.0 10.0 0.00 1.01 0.00 43 1016.1
20260904121603 86 85 3.0 9.0 0.00 1.01 0.00 44 1016.1
20260904121204 86 88 4.0 9.0 0.00 1.01 0.00 44 1016.1
20260904120804 86 92 4.0 9.0 0.00 1.01 0.00 44 1016.1
20260904120403 86 96 4.0 9.0 0.00 1.01 0.00 42 1016.2
20260904120004 86 89 3.0 8.0 0.00 1.01 0.00 42 1016.2
20260904115604 86 89 3.0 7.0 0.00 1.01 0.00 40 1016.2
20260904114803 86 98 4.0 9.0 0.00 1.01 0.00 40 1016.3
20260904114004 85 95 4.0 9.0 0.00 1.01 0.00 40 1016.5
20260904113605 86 101 3.0 7.0 0.00 1.01 0.00 40 1016.5
20260904113203 85 103 3.0 7.0 0.00 1.01 0.00 40 1016.4
20260904112804 85 98 2.0 6.0 0.00 1.01 0.00 41 1016.4
20260904112404 85 97 3.0 6.0 0.00 1.01 0.00 41 1016.4
20260904112004 85 101 3.0 7.0 0.00 2.02 0.00 41 1016.5
20260904111603 85 83 3.0 7.0 0.00 3.02 0.00 41 1016.5
20260904110803 84 84 5.0 8.0 0.00 3.02 0.00 40 1016.7
20260904110403 84 93 4.0 8.0 0.00 3.02 0.00 39 1016.6
20260904110004 85 98 3.0 7.0 0.00 3.02 0.00 40 1016.6
20260904105603 84 104 3.0 7.0 0.00 3.02 0.00 39 1016.8
20260904105204 85 99 3.0 6.0 0.00 3.02 0.00 38 1016.7
20260904104803 85 95 2.0 6.0 0.00 3.02 0.00 40 1016.8
20260904104404 84 97 3.0 6.0 0.00 3.02 0.00 39 1016.9
20260904104004 84 98 3.0 6.0 0.00 3.02 0.00 41 1017.0
20260904103604 84 94 3.0 7.0 0.00 3.02 0.00 43 1017.1
20260904103204 84 87 4.0 7.0 0.00 3.02 0.00 41 1017.1
20260904102804 83 87 4.0 7.0 0.00 3.02 0.00 43 1017.2
20260904102404 83 90 4.0 7.0 0.00 3.02 0.00 46 1017.2
20260904102004 83 100 3.0 7.0 0.00 3.02 0.00 45 1017.3
20260904101604 82 99 3.0 7.0 0.00 3.02 0.00 45 1017.5
20260904101204 82 101 3.0 7.0 0.00 3.02 0.00 46 1017.5
20260904100803 82 98 2.0 6.0 0.00 3.02 0.00 47 1017.6
20260904100404 82 106 2.0 6.0 0.00 3.02 0.00 48 1017.7
20260904100004 81 90 2.0 6.0 0.00 3.02 0.00 50 1017.7
20260904095604 81 90 3.0 5.0 0.00 3.02 0.00 51 1017.7
20260904095204 80 77 3.0 6.0 0.00 3.02 0.00 51 1017.8
20260904094804 81 72 2.0 6.0 0.00 3.02 0.00 50 1017.9
20260904094404 81 69 2.0 6.0 0.00 3.02 0.00 50 1017.9
20260904093604 80 327 1.0 2.0 0.00 3.02 0.00 49 1017.9
20260904093204 80 243 1.0 3.0 0.00 3.02 0.00 49 1017.9
20260904092804 79 135 2.0 5.0 0.00 3.02 0.00 50 1018.0
20260904092404 79 149 2.0 5.0 0.00 3.02 0.00 50 1018.0
20260904092004 80 157 2.0 5.0 0.00 3.02 0.00 49 1018.0
20260904091603 81 171 1.0 3.0 0.00 3.02 0.00 48 1018.1
20260904090803 79 352 1.0 3.0 0.00 3.02 0.00 49 1018.1
20260904090403 79 338 1.0 3.0 0.00 3.02 0.00 50 1018.2
20260904085603 78 355 2.0 4.0 0.00 3.02 0.00 51 1018.3
20260904084804 77 9 1.0 4.0 0.00 3.02 0.00 51 1018.3
20260904084005 76 346 1.0 4.0 0.00 3.02 0.00 52 1018.3
20260904083604 76 341 2.0 5.0 0.00 3.02 0.00 53 1018.4
20260904083205 76 338 2.0 5.0 0.00 3.02 0.00 54 1018.4
20260904082803 76 339 2.0 5.0 0.00 3.02 0.00 53 1018.4
20260904082404 76 353 1.0 3.0 0.00 3.02 0.00 52 1018.4
20260904082004 75 355 1.0 3.0 0.00 3.02 0.00 53 1018.3
20260904081603 75 341 2.0 4.0 0.00 3.02 0.00 54 1018.5
20260904081203 74 347 3.0 5.0 0.00 3.02 0.00 55 1018.4
20260904080403 74 8 2.0 4.0 0.00 3.02 0.00 55 1018.4
20260904080005 74 9 2.0 4.0 0.00 3.02 0.00 54 1018.4
20260904075603 74 350 1.0 3.0 0.00 3.02 0.00 56 1018.5
20260904074804 73 346 2.0 4.0 0.00 3.02 0.00 58 1018.5
20260904074004 72 348 2.0 4.0 0.00 3.02 0.00 58 1018.5
20260904073604 72 352 2.0 6.0 0.00 3.02 0.00 57 1018.5
20260904073203 72 344 3.0 6.0 0.00 3.02 0.00 58 1018.6
20260904072804 72 342 4.0 7.0 0.00 3.02 0.00 58 1018.6
20260904072404 71 342 4.0 7.0 0.00 3.02 0.00 59 1018.6
20260904072004 71 343 4.0 7.0 0.00 3.02 0.00 58 1018.6
20260904071604 71 340 4.0 7.0 0.00 3.02 0.00 60 1018.7
20260904070803 70 338 4.0 6.0 0.00 3.02 0.00 63 1018.7
20260904070403 69 336 3.0 6.0 0.00 3.02 0.00 63 1018.6
20260904070004 69 341 3.0 6.0 0.00 3.02 0.00 63 1018.6
20260904065603 69 340 3.0 5.0 0.00 3.02 0.00 63 1018.6
20260904065204 69 338 2.0 5.0 0.00 3.02 0.00 63 1018.6
20260904064804 69 339 3.0 5.0 0.00 3.02 0.00 62 1018.5
20260904064004 69 342 4.0 6.0 0.00 3.02 0.00 62 1018.7
20260904063604 69 343 4.0 6.0 0.00 3.02 0.00 63 1018.6
20260904063203 69 342 4.0 6.0 0.00 3.02 0.00 64 1018.6
20260904062804 69 336 3.0 6.0 0.00 3.02 0.00 64 1018.6
20260904062404 68 327 4.0 6.0 0.00 3.02 0.00 65 1018.5
20260904062004 68 324 4.0 6.0 0.00 3.02 0.00 64 1018.6
20260904061605 68 322 3.0 6.0 0.00 3.02 0.00 64 1018.6
20260904061204 68 326 2.0 4.0 0.00 3.02 0.00 65 1018.4
20260904060804 69 336 1.0 3.0 0.00 3.02 0.00 65 1018.4
20260904060403 69 344 1.0 3.0 0.00 3.02 0.00 65 1018.4
20260904060004 68 321 1.0 3.0 0.00 3.02 0.00 67 1018.5
20260904055603 68 293 1.0 4.0 0.00 3.02 0.00 67 1018.3
20260904055204 68 287 1.0 4.0 0.00 3.02 0.00 68 1018.3
20260904054804 68 307 2.0 5.0 0.00 3.02 0.00 68 1018.3
20260904054404 67 308 3.0 6.0 0.00 3.02 0.00 69 1018.4
20260904054005 67 309 3.0 6.0 0.00 3.02 0.00 69 1018.4
20260904053203 67 323 2.0 5.0 0.00 3.02 0.00 68 1018.4
20260904052803 67 318 1.0 4.0 0.00 3.02 0.00 68 1018.4
20260904052404 67 301 2.0 4.0 0.00 3.02 0.00 67 1018.3
20260904052004 67 298 2.0 4.0 0.00 3.02 0.00 69 1018.3
20260904051604 67 300 2.0 4.0 0.00 3.02 0.00 69 1018.1
20260904050803 67 326 2.0 5.0 0.00 3.02 0.00 69 1018.1
20260904050405 67 327 2.0 5.0 0.00 3.02 0.00 69 1018.0
20260904050004 67 313 2.0 5.0 0.00 3.02 0.00 69 1018.0
20260904045603 67 269 2.0 4.0 0.00 3.02 0.00 70 1018.0
20260904045204 66 239 1.0 4.0 0.00 3.02 0.00 71 1018.0
20260904044404 67 296 1.0 3.0 0.00 3.02 0.00 72 1018.0
20260904044004 67 289 1.0 3.0 0.00 3.02 0.00 72 1018.0
20260904043204 67 252 2.0 4.0 0.00 3.02 0.00 70 1017.8
20260904042804 67 252 1.0 4.0 0.00 3.02 0.00 71 1017.8
20260904042403 67 248 1.0 4.0 0.00 3.02 0.00 71 1017.9
20260904042004 67 275 1.0 3.0 0.00 3.02 0.00 72 1018.0
20260904041603 67 302 2.0 4.0 0.00 3.02 0.00 70 1017.9
20260904040804 67 250 2.0 5.0 0.00 3.02 0.00 71 1017.9
20260904040004 67 249 2.0 4.0 0.00 3.02 0.00 71 1017.9
20260904035603 67 249 2.0 4.0 0.00 3.02 0.00 70 1017.8
20260904035204 67 248 2.0 4.0 0.00 3.02 0.00 71 1017.9
20260904034804 67 231 3.0 6.0 0.00 3.02 0.00 72 1017.9
20260904034404 67 231 3.0 6.0 0.00 3.02 0.00 71 1017.9
20260904034004 67 231 3.0 6.0 0.00 3.02 0.00 71 1018.0
20260904033604 67 243 2.0 5.0 0.00 3.02 0.00 70 1018.1
20260904033204 67 245 2.0 5.0 0.00 3.02 0.00 71 1018.1
20260904032804 67 246 2.0 4.0 0.00 3.02 0.00 71 1018.1
20260904032404 67 240 2.0 4.0 0.00 3.02 0.00 72 1018.0
20260904032004 67 238 2.0 4.0 0.00 3.02 0.00 73 1017.9
20260904031604 67 239 3.0 4.0 0.00 3.02 0.00 72 1017.9
20260904031203 67 245 2.0 4.0 0.00 3.02 0.00 71 1017.9
20260904030803 67 256 2.0 4.0 0.00 3.02 0.00 71 1017.8
20260904030404 68 286 1.0 3.0 0.00 3.02 0.00 71 1017.8
20260904030005 69 316 1.0 2.0 0.00 3.02 0.00 70 1017.8
20260904025604 69 308 0.0 2.0 0.00 3.02 0.00 69 1017.8
20260904025204 68 305 1.0 4.0 0.00 3.02 0.00 70 1017.8
20260904024803 69 320 2.0 5.0 0.00 3.02 0.00 69 1017.8
20260904024404 69 326 3.0 5.0 0.00 3.02 0.00 68 1017.9
20260904024004 69 329 2.0 5.0 0.00 3.02 0.00 68 1017.9
20260904023603 69 331 2.0 7.0 0.00 3.02 0.00 68 1017.9
20260904023205 69 304 2.0 7.0 0.00 3.02 0.00 68 1017.8
20260904022804 68 237 3.0 5.0 0.00 3.02 0.00 71 1018.0
20260904022403 68 229 3.0 5.0 0.00 3.02 0.00 72 1018.0
20260904022004 67 227 4.0 5.0 0.00 3.02 0.00 72 1017.9
20260904021604 68 227 4.0 6.0 0.00 3.02 0.00 72 1017.9
20260904021204 68 225 4.0 6.0 0.00 3.02 0.00 71 1017.9
20260904020803 68 223 4.0 6.0 0.00 3.02 0.00 71 1017.9
20260904020403 68 231 3.0 5.0 0.00 3.02 0.00 72 1017.9
20260904020004 68 240 3.0 5.0 0.00 3.02 0.00 71 1017.8
20260904015603 69 255 2.0 4.0 0.00 3.02 0.00 70 1017.8
20260904015204 69 256 2.0 4.0 0.00 3.02 0.00 70 1017.8
20260904014803 69 269 1.0 3.0 0.00 3.02 0.00 71 1017.7
20260904014403 69 300 1.0 3.0 0.00 3.02 0.00 70 1017.6
20260904013203 70 197 1.0 3.0 0.00 3.02 0.00 67 1017.5
20260904012804 70 198 1.0 3.0 0.00 3.02 0.00 67 1017.6
20260904012403 70 195 1.0 3.0 0.00 3.02 0.00 68 1017.6
20260904012004 70 49 0.0 2.0 0.00 3.02 0.00 68 1017.6
20260904011603 71 106 0.0 2.0 0.00 3.02 0.00 67 1017.6
20260904010404 70 209 1.0 3.0 0.00 3.02 0.00 66 1017.6
20260904010004 70 241 1.0 3.0 0.00 3.02 0.00 68 1017.7
20260904005604 70 323 1.0 3.0 0.00 3.02 0.00 69 1017.6
20260904005203 70 314 1.0 3.0 0.00 3.02 0.00 70 1017.6
20260904004403 70 223 1.0 3.0 0.00 3.02 0.00 70 1017.6
20260904004004 70 218 2.0 3.0 0.00 3.02 0.00 70 1017.7
20260904003603 69 219 2.0 3.0 0.00 3.02 0.00 70 1017.7
20260904002803 70 216 1.0 3.0 0.00 3.02 0.00 70 1017.8
20260904002403 71 213 1.0 4.0 0.00 3.02 0.00 69 1017.9
20260904002004 71 222 2.0 4.0 0.00 3.02 0.00 68 1017.9
20260904001604 70 238 2.0 4.0 0.00 3.02 0.00 69 1017.9
20260904000803 71 294 2.0 4.0 0.00 3.02 0.00 69 1018.0
20260904000004 71 313 1.0 3.0 0.00 3.02 0.00 69 1018.0
20260903235604 71 329 1.0 3.0 0.00 3.02 0.00 71 1018.0
20260903234403 71 215 2.0 4.0 0.00 3.02 0.00 69 1018.1
20260903233603 71 280 1.0 3.0 0.00 3.02 0.00 69 1018.0
20260903232803 71 287 2.0 4.0 0.00 3.02 0.00 72 1018.0
20260903232004 71 254 1.0 3.0 0.00 3.02 0.00 71 1018.0
20260903231603 71 227 2.0 4.0 0.00 3.02 0.00 70 1018.0
20260903231204 71 223 1.0 4.0 0.00 3.02 0.00 68 1018.0
20260903230803 72 173 0.0 3.0 0.00 3.02 0.00 67 1017.9
20260903230403 72 168 1.0 2.0 0.00 3.02 0.00 67 1018.0
20260903230004 72 197 1.0 3.0 0.00 3.02 0.00 68 1017.9
20260903225603 72 202 1.0 3.0 0.00 3.02 0.00 67 1017.9
20260903225204 73 283 1.0 4.0 0.00 3.02 0.00 66 1017.7
20260903224804 73 324 1.0 4.0 0.00 3.02 0.00 65 1017.8
20260903223603 73 193 0.0 2.0 0.00 3.02 0.00 68 1017.8
20260903223204 73 244 0.0 2.0 0.00 3.02 0.00 68 1017.9
20260903222404 72 258 0.0 2.0 0.00 3.02 0.00 69 1017.8
20260903222004 72 247 1.0 2.0 0.00 3.02 0.00 69 1017.8
20260903221604 72 260 1.0 2.0 0.00 3.02 0.00 69 1017.8
20260903220804 73 249 2.0 4.0 0.00 3.02 0.00 68 1017.8
20260903220405 72 233 3.0 5.0 0.00 3.02 0.00 71 1017.9